Ada, OK

1:53 AM CST on January 23, 2017 (GMT -0600)
Ada Municipal

Weather History for KADH - June, 2014

Change the Weather History Date:

Wednesday, June 18, 2014

  Actual Average Record
Temperature  
Mean Temperature 80 °F -  
Max Temperature 89 °F 89 °F 102 °F (1918)
Min Temperature 71 °F 67 °F 53 °F (1912)
Cooling Degree Days 15    
Growing Degree Days 30 (Base 50)    
Moisture  
Dew Point 72 °F    
Average Humidity 81    
Maximum Humidity 100    
Minimum Humidity 55    
Precipitation  
Precipitation 0.00 in - - ()
Sea Level Pressure  
Sea Level Pressure 29.94 in    
Wind  
Wind Speed 13 mph (South)    
Max Wind Speed 23 mph    
Max Gust Speed 31 mph    
Visibility 10 miles    
Events Rain , Thunderstorm    
Averages and records for this station are not official NWS values.
T = Trace of Precipitation, MM = Missing Value Source: NWS Daily Summary

Daily Weather History Graph

Daily Weather History Graph

Search for Another Location

Airport or City:

Trip Planner

Search our weather history database for the weather conditions in past years. The results will help you decide how hot, cold, wet, or windy it might be!

Date:

Astronomy

Jun. 18, 2014 Rise Set
Actual Time 6:13 AM CDT 8:42 PM CDT
Civil Twilight 5:43 AM CDT 9:12 PM CDT
Nautical Twilight 5:06 AM CDT 9:48 PM CDT
Astronomical Twilight 4:26 AM CDT 10:29 PM CDT
Moon 12:24 AM CDT (6/18) 12:24 PM CDT (6/18)
Length of Visible Light 15h 28m
Length of Day
14h 29m
Waning Gibbous, 62% of the Moon is Illuminated
Jun 18
Waning Gibbous
Jun 19
Last Quarter
Jun 27
New
Jul 5
First Quarter
Jul 12
Full

Hourly Weather History & Observations

Time (CDT) Temp. Heat Index Dew Point Humidity Pressure Visibility Wind Dir Wind Speed Gust Speed Precip Events Conditions
12:15 AM 77.0 °F - 73.4 °F 89% 29.94 in 10.0 mi SSE 11.5 mph - N/A   Clear
12:35 AM 77.0 °F - 73.4 °F 89% 29.95 in 10.0 mi South 10.4 mph 17.3 mph N/A   Clear
1:15 AM 77.0 °F - 73.4 °F 89% 29.94 in 10.0 mi SSE 10.4 mph - N/A   Clear
1:35 AM 77.0 °F - 73.4 °F 89% 29.93 in 10.0 mi South 12.7 mph - N/A   Clear
1:55 AM 77.0 °F - 73.4 °F 89% 29.93 in 10.0 mi South 11.5 mph 18.4 mph N/A   Clear
2:15 AM 77.0 °F - 73.4 °F 89% 29.92 in 10.0 mi SSE 11.5 mph 18.4 mph N/A   Clear
2:35 AM 75.2 °F - 73.4 °F 94% 29.92 in 10.0 mi SSE 12.7 mph 19.6 mph N/A   Clear
2:55 AM 75.2 °F - 73.4 °F 94% 29.92 in 10.0 mi SSE 11.5 mph 17.3 mph N/A   Clear
3:15 AM 75.2 °F - 73.4 °F 94% 29.93 in 10.0 mi SSE 12.7 mph - N/A   Clear
3:35 AM 75.2 °F - 73.4 °F 94% 29.93 in 10.0 mi SSE 10.4 mph 16.1 mph N/A   Clear
3:55 AM 73.4 °F - 73.4 °F 100% 29.92 in 10.0 mi South 10.4 mph - N/A   Clear
4:15 AM 73.4 °F - 73.4 °F 100% 29.92 in 10.0 mi SSE 11.5 mph - N/A   Clear
4:35 AM 73.4 °F - 73.4 °F 100% 29.93 in 10.0 mi SSE 11.5 mph - N/A   Clear
4:55 AM 73.4 °F - 73.4 °F 100% 29.92 in 10.0 mi SSE 10.4 mph 17.3 mph N/A   Clear
5:15 AM 73.4 °F - 73.4 °F 100% 29.93 in 10.0 mi SSE 13.8 mph - N/A   Clear
5:35 AM 73.4 °F - 71.6 °F 94% 29.93 in 10.0 mi SSE 13.8 mph 19.6 mph N/A   Clear
5:55 AM 73.4 °F - 71.6 °F 94% 29.93 in 10.0 mi South 15.0 mph 19.6 mph N/A   Clear
6:15 AM 73.4 °F - 71.6 °F 94% 29.94 in 10.0 mi South 16.1 mph 23.0 mph N/A   Clear
6:35 AM 73.4 °F - 71.6 °F 94% 29.94 in 10.0 mi South 12.7 mph 21.9 mph N/A   Clear
6:55 AM 73.4 °F - 71.6 °F 94% 29.95 in 10.0 mi South 13.8 mph - N/A   Clear
7:15 AM 73.4 °F - 71.6 °F 94% 29.95 in 10.0 mi South 12.7 mph 19.6 mph N/A   Clear
7:35 AM 75.2 °F - 71.6 °F 89% 29.96 in 10.0 mi South 13.8 mph - N/A   Scattered Clouds
7:55 AM 75.2 °F - 71.6 °F 89% 29.97 in 10.0 mi South 15.0 mph 19.6 mph N/A   Mostly Cloudy
8:15 AM 75.2 °F - 71.6 °F 89% 29.97 in 10.0 mi South 11.5 mph 19.6 mph N/A   Overcast
8:35 AM 77.0 °F - 71.6 °F 83% 29.98 in 10.0 mi South 11.5 mph 19.6 mph N/A   Overcast
9:15 AM 77.0 °F - 71.6 °F 83% 29.99 in 10.0 mi SSW 12.7 mph - N/A   Overcast
9:35 AM 77.0 °F - 71.6 °F 83% 29.98 in 10.0 mi SSW 12.7 mph 19.6 mph N/A   Mostly Cloudy
9:55 AM 78.8 °F - 71.6 °F 78% 29.98 in 10.0 mi SSW 18.4 mph 21.9 mph N/A   Scattered Clouds
10:15 AM 80.6 °F 84.6 °F 71.6 °F 74% 29.97 in 10.0 mi SSW 15.0 mph 21.9 mph N/A   Mostly Cloudy
10:35 AM 80.6 °F 84.6 °F 71.6 °F 74% 29.97 in 10.0 mi South 12.7 mph 20.7 mph N/A   Mostly Cloudy
10:55 AM 82.4 °F 87.2 °F 71.6 °F 70% 29.97 in 10.0 mi SSW 16.1 mph 20.7 mph N/A   Mostly Cloudy
11:15 AM 82.4 °F 87.2 °F 71.6 °F 70% 29.97 in 10.0 mi South 18.4 mph 26.5 mph N/A   Scattered Clouds
11:35 AM 84.2 °F 90.9 °F 73.4 °F 70% 29.97 in 10.0 mi SSW 13.8 mph 23.0 mph N/A   Scattered Clouds
11:55 AM 84.2 °F 90.9 °F 73.4 °F 70% 29.97 in 10.0 mi SSW 13.8 mph 24.2 mph N/A   Scattered Clouds
12:15 PM 86.0 °F 93.4 °F 73.4 °F 66% 29.96 in 10.0 mi SSW 16.1 mph 25.3 mph N/A   Scattered Clouds
12:35 PM 86.0 °F 93.4 °F 73.4 °F 66% 29.96 in 10.0 mi SSW 15.0 mph 20.7 mph N/A   Scattered Clouds
1:15 PM 86.0 °F 93.4 °F 73.4 °F 66% 29.96 in 10.0 mi SSW 16.1 mph 24.2 mph N/A   Scattered Clouds
1:35 PM 86.0 °F 93.4 °F 73.4 °F 66% 29.96 in 10.0 mi South 16.1 mph 21.9 mph N/A   Scattered Clouds
1:55 PM 87.8 °F 95.6 °F 73.4 °F 62% 29.95 in 10.0 mi South 17.3 mph - N/A   Mostly Cloudy
2:35 PM 87.8 °F 95.6 °F 73.4 °F 62% 29.95 in 10.0 mi South 17.3 mph 21.9 mph N/A   Scattered Clouds
2:55 PM 86.0 °F 93.4 °F 73.4 °F 66% 29.94 in 10.0 mi South 15.0 mph 23.0 mph N/A   Scattered Clouds
3:35 PM 89.6 °F 98.2 °F 73.4 °F 59% 29.93 in 10.0 mi South 12.7 mph 18.4 mph N/A   Scattered Clouds
3:55 PM 89.6 °F 98.2 °F 73.4 °F 59% 29.93 in 10.0 mi SSE 18.4 mph - N/A   Scattered Clouds
4:15 PM 89.6 °F 98.2 °F 73.4 °F 59% 29.92 in 10.0 mi South 16.1 mph 24.2 mph N/A   Scattered Clouds
4:35 PM 89.6 °F 98.2 °F 73.4 °F 59% 29.92 in 10.0 mi SSE 17.3 mph 23.0 mph N/A   Scattered Clouds
4:55 PM 89.6 °F 96.2 °F 71.6 °F 55% 29.92 in 10.0 mi South 17.3 mph 23.0 mph N/A   Scattered Clouds
5:15 PM 89.6 °F 98.2 °F 73.4 °F 59% 29.91 in 10.0 mi South 12.7 mph 17.3 mph N/A   Scattered Clouds
5:35 PM 87.8 °F 93.8 °F 71.6 °F 58% 29.91 in 10.0 mi South 17.3 mph 23.0 mph N/A   Scattered Clouds
5:55 PM 87.8 °F 97.6 °F 75.2 °F 66% 29.92 in 10.0 mi SSE 13.8 mph 23.0 mph N/A   Scattered Clouds
6:15 PM 86.0 °F 93.4 °F 73.4 °F 66% 29.91 in 10.0 mi SSE 18.4 mph 24.2 mph N/A   Scattered Clouds
6:35 PM 86.0 °F 93.4 °F 73.4 °F 66% 29.92 in 10.0 mi SSE 13.8 mph 18.4 mph N/A   Scattered Clouds
6:55 PM 86.0 °F 93.4 °F 73.4 °F 66% 29.92 in 10.0 mi South 12.7 mph - N/A   Clear
7:15 PM 86.0 °F 93.4 °F 73.4 °F 66% 29.92 in 10.0 mi SSE 11.5 mph - N/A   Clear
7:35 PM 86.0 °F 93.4 °F 73.4 °F 66% 29.92 in 10.0 mi SSE 17.3 mph 23.0 mph N/A   Clear
7:55 PM 82.4 °F 88.2 °F 73.4 °F 74% 29.91 in 10.0 mi SSE 19.6 mph 24.2 mph N/A   Clear
8:15 PM 82.4 °F 87.2 °F 71.6 °F 70% 29.92 in 10.0 mi SSE 19.6 mph 31.1 mph N/A   Clear
8:35 PM 75.2 °F - 69.8 °F 83% 29.95 in 10.0 mi South 23.0 mph 28.8 mph N/A Rain , Thunderstorm Thunderstorms and Rain
8:55 PM 71.6 °F - 71.6 °F 100% 29.95 in 10.0 mi South 12.7 mph 21.9 mph N/A Rain , Thunderstorm Light Thunderstorms and Rain
9:15 PM 73.4 °F - 71.6 °F 94% 29.95 in 10.0 mi South 16.1 mph 29.9 mph N/A   Clear
9:35 PM 73.4 °F - 71.6 °F 94% 29.95 in 10.0 mi South 13.8 mph 20.7 mph N/A   Clear
9:55 PM 71.6 °F - 71.6 °F 100% 29.94 in 10.0 mi South 10.4 mph - N/A   Clear
10:15 PM 73.4 °F - 71.6 °F 94% 29.95 in 10.0 mi South 8.1 mph - N/A   Clear
10:35 PM 71.6 °F - 71.6 °F 100% 29.95 in 10.0 mi SSE 11.5 mph - N/A   Clear
10:55 PM 71.6 °F - 69.8 °F 94% 29.95 in 10.0 mi SSE 10.4 mph - N/A   Clear
11:15 PM 71.6 °F - 69.8 °F 94% 29.96 in 10.0 mi SSE 10.4 mph - N/A   Clear
11:35 PM 71.6 °F - 69.8 °F 94% 29.97 in 10.0 mi SSE 11.5 mph - N/A   Clear
11:55 PM 71.6 °F - 69.8 °F 94% 29.97 in 10.0 mi SSE 13.8 mph - N/A   Clear